Theta_e
296 296 296 295 296 296 295 296 296 297 296 296 297 297 297 297 297 293 289 292 286 280 281 280 280 276 276 277 272 272 270 267 263 261 260 263 264 269 269 272 272 271 272 274 276 272 268 280 280 280 284 282 282 282
296 295 294 294 295 294 296 296 296 296 297 297 298 298 299 298 297 296 287 290 291 283 280 282 284 285 283 282 279 271 270 264 270 262 267 264 262 268 268 265 277 272 274 271 276 275 280 281 282 283 283 282 282 283
295 294 294 294 294 295 296 295 296 296 297 298 299 299 300 299 297 295 289 288 285 281 277 279 278 283 286 285 284 271 269 276 274 273 267 265 263 273 267 267 272 273 278 272 274 277 277 280 283 284 283 282 284 284
294 293 294 293 295 295 295 296 296 296 297 297 297 297 297 297 296 295 288 288 286 281 272 270 281 279 285 286 283 282 279 277 274 270 263 262 260 274 270 272 271 273 275 273 272 278 281 281 283 283 282 282 283 284
293 293 293 294 295 294 296 295 296 296 296 296 296 296 295 295 295 291 289 289 287 280 271 269 274 280 283 284 282 282 281 274 267 267 266 263 271 271 272 271 270 275 274 272 272 279 279 281 283 282 281 283 285 282
292 293 293 294 294 295 294 294 295 295 295 295 295 295 295 294 292 283 275 286 289 283 275 272 274 272 276 280 280 279 280 271 270 274 270 271 275 272 262 259 273 276 278 279 277 281 280 280 281 282 282 283 284 282
292 292 293 294 294 294 293 293 294 294 294 294 294 294 293 292 284 276 275 283 290 288 276 269 265 273 271 269 267 269 269 276 276 276 272 267 269 274 260 264 273 276 278 279 280 280 278 280 279 282 283 283 281 279
292 292 294 293 294 294 292 293 293 293 293 293 292 292 291 291 286 279 287 291 289 281 275 262 265 266 272 274 270 267 269 270 274 271 264 265 267 273 268 269 274 276 277 278 279 281 280 281 281 281 283 279 281 282
291 292 293 293 293 294 292 292 292 292 292 292 292 290 281 278 273 281 291 290 287 274 264 261 259 260 274 266 270 270 272 264 266 269 266 271 264 268 268 271 273 274 275 276 279 275 275 275 280 281 282 281 277 281
291 293 292 292 293 293 292 291 290 290 290 289 279 269 265 270 288 286 276 270 275 269 269 262 259 263 271 264 266 265 271 267 265 268 268 269 268 274 275 275 276 276 277 275 274 274 276 276 279 279 282 274 272 272
292 292 292 292 293 293 291 290 289 288 284 272 263 262 272 284 275 264 263 262 261 260 261 270 263 262 272 267 266 272 263 265 266 264 268 261 259 271 269 272 273 270 265 265 270 273 276 278 279 279 277 263 264 266
292 291 292 292 292 293 291 288 288 279 271 273 272 271 268 263 258 259 251 257 258 258 258 263 265 269 266 269 265 266 265 262 262 264 266 256 265 262 258 258 261 260 259 261 263 265 268 271 272 269 262 261 260 260
291 291 291 292 292 292 291 288 288 287 284 269 262 260 260 257 256 254 251 255 255 257 261 266 263 266 264 272 270 268 267 264 262 261 260 261 263 262 258 257 257 255 256 259 261 262 261 256 257 259 260 261 260 261
291 292 291 291 291 291 291 289 288 283 269 262 258 258 257 252 253 254 255 258 264 260 259 261 262 266 267 268 268 267 266 265 263 259 260 261 260 259 259 257 252 256 256 257 259 263 262 257 258 258 258 257 259 259
290 291 291 290 291 291 291 289 286 275 268 264 259 257 253 255 252 256 254 260 264 263 264 265 265 271 269 268 269 267 264 262 262 262 265 265 263 262 261 258 254 255 255 254 259 262 261 261 258 258 257 256 257 257
290 289 283 290 291 291 291 285 276 268 262 263 258 258 249 254 257 254 255 262 265 267 265 266 268 267 264 267 265 265 263 262 262 262 265 264 263 263 261 257 257 256 254 256 260 261 261 260 259 257 258 257 257 257
288 279 289 289 290 291 289 276 271 263 262 258 260 249 254 254 262 260 260 264 272 266 266 267 266 265 271 268 266 264 262 263 263 263 264 263 262 261 260 258 256 256 258 260 260 260 258 257 257 257 256 257 257 257
283 283 289 289 288 285 273 273 270 263 260 256 260 257 252 256 256 256 261 267 268 268 269 269 271 266 267 264 264 262 263 263 263 263 262 263 263 262 259 257 258 259 259 259 260 259 259 258 257 257 257 256 257 257
281 281 288 290 288 279 270 269 271 265 262 257 255 255 254 256 257 259 262 265 267 270 271 269 267 266 264 263 261 261 261 261 259 261 262 263 263 262 261 260 259 258 258 258 258 257 257 257 258 258 258 257 256 256
288 288 288 289 286 278 273 271 266 263 259 262 255 257 257 261 259 258 260 266 268 269 268 266 264 262 261 262 262 261 261 261 259 258 262 262 264 262 262 261 260 260 259 259 259 259 259 258 258 257 257 256 255 254
282 280 286 283 282 278 271 267 263 262 258 262 257 259 261 258 258 260 262 263 265 263 264 261 262 261 262 262 263 262 262 261 260 260 260 262 263 262 262 261 261 260 259 258 257 257 257 256 256 256 255 255 255 255
271 285 270 276 270 272 272 271 267 261 261 258 261 258 259 259 258 259 260 262 259 258 258 258 259 259 259 261 261 263 262 263 262 262 263 263 261 260 259 260 260 258 258 258 257 256 256 256 256 256 255 254 255 254
279 280 275 275 274 272 270 270 267 261 262 259 258 258 256 255 256 259 257 256 257 257 258 256 258 259 259 262 263 262 262 261 260 260 260 260 260 260 259 259 259 258 257 257 258 257 257 258 258 256 256 255 254 252
277 267 267 268 271 269 269 266 264 258 256 257 255 256 256 254 255 258 257 252 256 256 256 254 256 258 261 262 260 259 260 261 260 260 260 260 258 258 259 258 259 259 259 259 258 257 257 256 256 254 253 252 251 250
266 262 264 264 267 268 265 262 262 261 256 253 256 255 255 254 255 255 256 255 253 254 255 254 254 256 257 258 260 259 260 259 259 257 257 259 259 259 258 259 259 260 260 258 256 255 254 253 252 251 249 248 246 242
260 259 261 263 264 265 266 265 264 261 255 255 255 251 252 252 254 255 252 253 253 250 252 253 252 253 256 258 257 257 257 258 259 257 256 257 259 260 259 258 257 257 259 257 255 253 251 250 248 246 245 243 245 244
262 260 261 263 262 263 262 264 264 260 258 255 250 253 252 254 252 251 249 251 250 248 252 254 253 254 255 257 259 258 258 258 257 256 256 256 256 257 260 259 256 254 254 252 251 252 250 248 246 245 243 240 238 240
259 260 260 260 260 260 261 261 262 260 253 248 251 253 253 254 254 248 250 252 250 253 255 254 255 256 256 259 259 259 258 258 258 258 258 256 255 253 254 255 255 256 252 251 251 250 248 248 246 245 245 243 241 240
259 259 260 258 258 258 257 258 257 254 251 247 250 248 248 246 245 246 251 251 251 250 253 254 256 256 258 261 260 260 260 260 259 259 257 255 251 250 247 247 251 252 253 253 256 250 247 246 245 245 242 244 241 241
258 259 259 258 251 249 251 255 252 247 246 247 247 247 248 246 247 248 250 250 251 251 252 254 255 255 258 260 261 260 257 256 256 256 251 248 248 244 243 245 249 249 252 254 254 253 255 248 248 244 245 245 245 245
258 259 259 258 255 255 251 247 246 246 245 246 243 247 247 246 249 250 250 249 249 249 252 254 255 256 259 260 260 261 258 251 245 247 250 250 246 246 247 247 247 249 249 249 248 248 248 246 244 245 245 245 244 243
258 259 259 257 256 256 256 255 250 248 247 247 248 243 246 247 248 248 250 248 250 250 253 255 256 255 256 256 253 249 249 244 246 250 250 250 248 246 247 248 248 249 249 249 248 247 247 246 245 244 244 243 241 241
259 261 261 259 257 256 256 255 253 253 250 248 247 245 245 249 251 249 250 249 250 251 253 254 254 254 253 251 248 245 246 244 250 256 254 253 252 251 248 248 248 249 249 248 247 247 246 245 243 242 242 240 239 239
Wind_Speed
16 15 14 17 18 18 19 21 24 26 27 29 31 32 33 32 31 20 9 9 9 10 9 10 9 9 2 6 6 5 5 4 3 2 4 5 4 1 6 7 6 6 7 8 9 6 7 7 5 6 2 3 2 4
14 14 15 18 16 19 20 23 24 26 29 30 32 33 33 33 33 27 13 6 8 7 4 5 15 18 16 15 9 3 7 5 5 4 2 1 3 3 4 7 6 4 5 6 5 5 5 5 8 9 7 5 8 5
13 13 15 15 18 20 21 21 25 26 28 29 30 34 37 34 31 24 9 5 3 3 2 2 9 11 15 12 7 5 3 5 3 5 4 4 4 1 3 5 5 9 3 7 12 1 21 13 4 14 13 11 13 7
12 14 15 15 18 18 20 22 22 23 26 27 29 29 23 10 9 14 4 5 3 2 3 8 2 3 7 9 8 8 5 4 4 4 3 4 4 5 4 6 6 7 7 8 14 13 10 2 16 16 19 16 11 8
13 14 13 17 16 18 18 17 18 20 21 22 23 19 15 10 11 9 4 5 3 4 2 4 4 5 5 13 15 11 10 5 3 1 1 4 3 1 3 1 10 5 7 8 8 14 14 14 14 17 15 12 13 9
13 13 14 16 15 16 12 13 14 15 16 19 18 16 14 14 11 4 4 1 4 3 1 3 3 4 3 3 10 10 10 3 4 4 4 4 6 4 3 6 7 10 12 11 10 9 8 14 10 9 8 13 12 9
13 12 16 13 15 11 9 9 11 11 11 14 16 14 11 10 5 4 4 4 9 5 2 2 4 3 1 3 2 3 1 3 3 4 5 4 2 6 3 11 15 9 13 15 18 14 18 16 13 15 15 19 8 6
12 13 15 13 14 10 8 6 10 11 11 10 9 9 10 7 5 4 4 5 5 2 3 2 5 4 1 3 2 1 2 2 4 4 0 4 2 4 8 9 14 15 15 17 18 15 12 10 11 11 11 12 13 8
12 14 11 13 14 11 6 8 11 13 16 17 17 9 3 5 3 2 9 3 1 5 2 3 4 5 1 2 1 2 3 1 1 4 4 5 3 6 10 15 17 14 12 18 17 4 2 5 11 10 10 13 9 12
13 12 11 11 11 9 7 7 10 13 15 9 6 6 5 3 10 6 7 5 3 4 3 2 1 3 3 1 3 0 3 4 2 6 3 6 8 19 16 17 13 14 13 4 3 11 6 7 8 7 12 5 6 4
12 11 11 9 11 9 6 4 8 11 7 5 3 1 4 8 4 5 2 3 3 5 1 2 4 2 3 2 4 4 4 3 4 6 7 4 5 12 6 9 4 4 2 6 7 8 11 12 14 12 9 2 2 1
10 10 10 9 9 10 7 3 4 4 3 4 3 2 4 6 5 6 2 4 2 6 4 3 4 4 4 2 3 4 4 1 8 2 3 4 6 1 4 4 5 7 6 8 5 10 12 10 10 4 4 2 3 3
8 9 10 8 6 8 7 4 1 0 6 4 6 5 5 4 6 5 3 6 3 3 4 2 3 3 4 2 4 3 6 7 3 2 6 5 2 4 5 4 6 5 5 6 7 2 4 2 3 3 5 4 5 5
9 9 10 11 7 8 9 6 1 5 5 4 4 5 4 4 5 7 6 6 6 3 2 3 3 4 3 1 4 6 5 2 2 1 7 1 3 5 6 4 4 9 8 8 6 3 5 4 7 7 6 5 6 7
8 7 8 10 10 10 11 4 4 3 4 2 5 4 5 4 4 4 3 3 4 3 1 3 3 2 3 5 4 3 3 5 4 1 3 3 5 5 6 4 5 7 6 4 2 3 6 7 8 9 8 7 7 8
6 3 3 5 6 9 9 5 3 3 4 4 1 1 2 3 5 3 2 5 2 1 1 1 4 4 6 5 5 7 3 3 1 2 4 3 6 7 6 4 5 5 3 1 4 6 7 8 9 8 9 9 9 9
1 3 1 3 1 8 8 3 3 5 3 2 5 2 3 2 5 4 4 4 1 2 2 2 4 8 4 4 2 3 0 3 4 6 4 3 6 7 5 3 3 1 4 5 8 9 9 5 6 9 13 8 9 9
2 4 5 4 5 3 3 3 4 3 3 4 1 4 4 3 3 4 4 2 2 2 2 4 3 3 4 4 3 0 2 3 3 4 5 3 3 2 2 2 4 5 7 8 8 8 8 8 10 8 9 6 8 8
5 4 8 6 8 4 3 2 3 3 6 3 2 3 2 3 4 2 2 3 2 1 3 3 4 3 2 2 4 7 5 3 6 6 4 3 3 3 4 5 6 7 8 7 8 7 7 9 7 6 6 6 7 6
5 6 4 4 7 2 2 1 3 3 2 5 1 3 3 3 1 0 1 1 1 1 3 3 2 2 2 3 4 7 6 4 2 3 0 3 3 4 5 5 5 6 6 7 8 9 8 8 7 7 6 7 7 7
4 3 3 5 2 2 3 3 2 5 2 1 2 1 4 3 3 2 1 2 2 2 2 2 2 2 4 4 5 5 6 4 2 1 2 2 4 4 5 5 6 6 6 6 6 8 9 7 6 6 7 8 7 7
3 2 3 0 3 1 1 2 4 2 3 3 2 1 2 2 2 2 2 3 3 2 2 3 3 4 5 4 6 4 5 4 4 3 5 3 3 4 4 4 5 7 7 6 6 7 7 6 6 7 7 7 7 7
4 2 0 1 5 5 3 1 2 1 2 4 3 4 3 3 3 2 3 1 1 2 3 2 5 6 4 5 4 6 6 5 5 5 5 5 5 5 6 6 5 7 7 7 6 7 7 8 9 8 7 7 7 7
5 3 3 3 3 3 2 1 2 2 4 2 1 4 3 3 3 4 1 1 1 2 4 6 5 5 3 4 5 5 6 4 4 5 5 5 6 6 6 7 6 6 6 6 6 6 7 7 7 7 7 8 7 7
5 5 2 4 1 2 3 2 2 2 3 3 1 4 3 3 3 2 1 1 3 2 4 4 3 3 3 3 4 5 7 5 4 5 5 5 5 5 6 7 7 6 4 7 7 7 6 6 6 7 6 6 8 6
2 2 1 2 0 1 2 5 6 6 4 1 4 3 3 3 3 4 1 1 1 2 2 2 2 4 3 4 3 3 4 4 2 4 4 5 4 3 4 6 5 4 4 4 7 9 8 6 7 8 7 5 5 6
4 1 1 1 1 1 1 1 1 2 3 4 2 2 4 2 4 4 2 2 2 3 3 3 3 2 2 3 1 2 3 4 5 4 3 5 5 5 3 4 5 2 3 5 5 8 11 8 7 6 6 3 3 3
2 1 2 1 2 2 0 0 1 2 1 2 3 2 5 7 4 3 4 2 3 3 4 3 3 3 2 1 2 3 4 5 6 6 6 8 7 7 7 7 7 11 7 6 7 6 6 7 7 5 5 5 2 3
1 1 0 2 1 3 2 0 1 1 3 3 4 4 4 4 4 2 3 2 2 1 2 3 2 1 1 1 2 2 1 1 1 5 6 4 2 4 4 3 5 6 6 8 12 9 9 7 6 6 5 5 3 3
1 0 1 3 4 2 4 1 2 3 1 3 2 3 3 3 3 1 2 3 2 2 3 3 2 1 1 1 1 2 3 3 3 2 5 4 5 3 2 3 5 3 4 7 8 8 10 6 6 4 4 5 4 4
1 1 2 3 2 0 3 3 2 3 2 2 1 4 3 3 4 2 1 2 2 2 1 2 2 3 3 3 2 1 1 3 4 4 7 8 6 5 4 4 3 5 5 6 6 5 6 4 4 5 7 7 6 5
1 1 1 3 2 1 1 1 3 2 1 3 2 2 4 4 2 4 3 2 3 3 3 2 1 2 3 2 3 3 2 2 3 5 9 8 6 4 4 4 5 5 6 7 5 5 7 7 5 5 5 6 5 5
1 1 1 3 3 3 3 3 1 2 3 1 2 3 3 4 3 4 2 1 2 1 1 2 2 3 5 5 4 3 4 3 6 11 11 10 9 8 5 4 5 5 8 7 6 6 7 8 5 4 5 4 4 3
Wind_Direction
287 291 297 298 301 309 310 310 303 302 303 299 294 290 283 277 270 264 255 209 223 242 230 192 194 202 167 189 206 236 47 330 29 118 140 243 210 77 295 313 275 206 276 199 207 215 266 162 87 184 276 321 289 301
287 291 298 296 308 303 307 303 311 304 303 304 298 290 280 270 263 255 251 211 204 228 254 209 226 226 210 201 194 232 188 175 197 88 180 142 286 233 228 282 300 222 0 311 310 223 353 340 22 17 360 325 325 337
285 291 289 301 300 302 310 310 308 314 318 316 313 307 292 270 255 245 233 158 192 213 285 212 226 234 223 198 164 165 294 192 191 173 173 221 219 215 237 261 338 350 25 314 324 264 318 322 31 14 2 334 319 323
277 280 290 295 297 311 306 309 318 326 328 329 329 341 354 1 241 237 137 157 149 121 190 278 338 218 198 192 192 211 150 74 106 84 151 192 176 199 232 262 259 270 301 289 283 270 318 140 357 344 329 326 307 294
271 277 288 292 305 303 307 316 329 335 343 343 346 349 356 12 63 83 102 173 173 140 205 276 309 244 204 194 204 210 212 137 130 70 168 235 246 193 251 258 255 200 241 265 279 298 300 293 317 321 317 319 325 276
264 276 283 295 298 305 314 328 341 350 3 359 7 21 41 89 108 74 34 288 191 114 149 247 267 326 352 172 205 216 217 172 150 174 195 225 231 170 212 238 243 231 244 250 271 304 306 305 292 295 312 323 326 296
262 271 283 293 295 301 312 334 350 3 11 18 21 25 40 49 47 80 170 244 174 150 200 313 326 318 310 91 22 55 66 193 185 217 206 194 228 202 177 259 257 276 286 289 288 298 286 293 306 319 317 310 308 248
258 269 284 285 294 283 290 335 329 339 339 348 358 6 6 16 43 14 347 60 88 61 49 123 273 5 47 153 240 172 170 186 219 200 17 191 23 194 243 253 267 262 249 259 263 263 261 288 304 314 313 308 311 308
254 270 280 285 291 270 256 286 304 308 304 305 316 334 33 26 27 300 328 76 95 126 166 105 139 253 355 275 167 326 179 206 276 217 223 139 198 217 214 221 239 248 234 254 269 269 297 260 283 286 287 293 253 262
257 276 267 290 287 244 248 301 323 322 317 329 46 47 342 266 308 348 7 20 7 344 36 193 21 300 119 330 287 42 202 218 211 233 124 203 237 236 229 234 241 238 244 242 268 282 267 268 266 268 275 290 261 264
264 261 262 288 288 238 233 291 324 337 35 39 44 215 238 321 50 21 3 73 323 339 325 255 169 202 272 139 221 229 230 240 238 246 188 219 262 242 335 266 332 26 56 275 270 287 282 270 276 273 263 274 16 346
265 250 270 269 292 219 201 247 344 55 166 183 173 60 16 38 31 74 280 325 95 234 293 151 243 198 272 114 132 264 219 101 240 131 185 258 247 311 350 328 318 320 314 290 257 266 273 259 254 228 125 108 51 28
262 245 256 280 272 282 208 213 300 107 117 42 47 43 56 307 25 110 266 308 322 240 243 208 285 203 344 232 240 239 232 230 65 113 224 232 317 315 309 289 295 283 281 288 308 296 30 62 14 44 112 101 99 76
257 263 244 255 269 282 209 208 170 107 78 82 95 302 137 313 251 188 186 198 240 178 235 188 244 187 207 229 233 261 240 93 236 239 233 244 268 290 307 304 334 321 324 311 312 26 94 81 74 58 60 49 69 69
259 283 265 254 264 272 191 165 102 70 104 134 89 240 224 241 236 232 264 313 242 229 117 324 291 224 215 238 243 284 286 242 213 290 31 342 314 295 308 332 314 303 303 297 300 119 106 93 84 74 52 53 57 65
263 310 294 278 243 193 152 112 52 80 46 112 81 37 287 40 292 341 216 254 230 221 354 127 252 258 238 221 210 223 220 234 284 282 309 315 316 315 324 320 302 291 279 332 80 96 94 93 93 88 73 59 54 61
52 199 213 100 98 143 150 89 65 46 167 55 273 82 149 204 219 228 194 242 223 84 209 257 260 231 278 236 226 22 25 321 348 312 336 338 315 322 337 333 305 1 46 77 92 88 89 81 93 87 80 61 68 65
166 230 233 182 98 107 26 69 87 92 263 249 180 239 217 201 194 264 246 244 132 221 226 232 288 264 274 290 289 333 324 334 301 320 307 317 317 350 25 38 48 78 70 62 76 89 90 90 89 86 87 82 81 67
209 210 250 224 173 138 126 298 103 219 231 225 261 257 198 244 246 245 240 264 226 228 274 274 263 270 346 9 300 324 328 336 307 313 295 325 348 65 87 76 57 56 62 62 71 76 76 68 75 82 80 77 79 65
279 297 292 110 124 118 121 213 75 120 238 237 41 285 204 209 240 176 250 263 270 186 221 247 320 338 347 332 327 305 313 315 292 302 150 25 30 48 72 83 84 93 89 85 82 80 81 74 60 65 68 73 83 71
46 306 44 96 130 124 152 147 297 199 210 221 237 146 277 9 26 15 329 322 58 19 320 17 324 338 330 304 293 295 298 308 295 258 316 6 28 57 62 62 68 64 69 71 80 76 70 73 77 74 77 73 69 73
241 5 66 210 99 235 253 206 167 225 103 232 303 81 345 351 314 285 249 59 57 356 351 325 328 322 320 332 324 323 333 343 10 19 26 36 39 53 53 66 84 81 74 72 78 84 83 81 81 81 83 79 72 71
35 167 13 266 198 189 240 82 113 342 149 267 6 8 336 329 238 340 64 40 47 350 314 304 298 287 274 304 352 5 1 23 35 35 40 57 57 59 67 60 59 85 86 70 79 90 91 90 90 90 89 86 87 77
33 83 178 223 214 170 96 161 64 77 27 22 28 308 321 258 317 60 115 325 13 319 342 334 335 334 334 355 27 14 2 8 42 43 32 58 68 57 60 67 66 67 77 97 90 88 86 86 89 88 88 88 77 80
111 292 91 247 335 149 137 130 188 99 223 227 109 311 318 7 29 11 139 14 346 344 341 339 349 352 3 345 350 9 12 15 45 60 16 38 75 79 70 67 63 61 79 101 97 97 88 82 78 78 68 81 96 79
188 328 120 353 30 222 149 164 182 195 143 211 234 270 19 71 41 261 213 256 253 255 309 343 329 337 345 349 330 344 341 342 18 65 22 7 11 71 106 110 106 61 36 88 119 112 98 88 95 95 86 64 69 99
188 156 359 272 305 321 68 28 56 104 159 192 228 58 61 26 265 255 291 234 207 235 235 238 230 239 277 315 40 11 19 38 65 83 60 34 24 21 42 111 119 106 58 79 90 118 123 118 111 108 108 70 59 76
99 7 190 35 53 6 347 36 174 182 137 286 68 100 166 195 242 250 224 250 229 287 285 255 217 226 235 71 98 96 79 91 102 109 102 64 45 36 39 70 86 92 87 84 100 96 103 116 120 117 104 104 76 25
117 42 171 93 78 39 46 101 92 68 153 100 126 212 238 224 224 247 287 263 303 350 16 8 350 38 64 115 79 63 86 231 264 128 108 103 49 5 356 33 77 85 93 93 90 93 95 98 100 101 101 97 101 67
119 283 176 105 113 239 241 155 169 229 124 152 145 18 353 316 256 238 343 354 17 318 274 273 291 47 284 306 359 79 51 20 350 114 144 163 180 184 96 84 95 90 97 102 100 90 76 66 68 45 54 59 50 54
284 221 193 98 101 149 189 181 69 60 51 85 19 122 211 262 307 295 325 272 268 339 46 13 14 8 10 15 9 19 22 16 4 48 97 105 115 115 113 100 86 89 90 98 99 101 105 73 74 89 82 79 65 67
249 245 137 115 121 126 115 109 161 112 349 64 307 29 360 36 328 290 311 19 47 40 5 11 45 37 15 24 33 31 91 104 61 104 110 115 114 115 110 101 95 101 101 99 97 96 97 102 96 90 101 96 79 67
250 204 116 110 118 169 219 113 112 76 27 45 273 192 196 159 213 255 298 59 116 133 76 58 61 57 49 58 80 79 81 110 112 101 102 110 119 121 108 103 102 103 106 100 94 108 109 110 99 101 98 93 79 62